TimeEDT,TemperatureF,Dew PointF,Humidity,Sea Level PressureIn,VisibilityMPH,Wind Direction,Wind SpeedMPH,Gust SpeedMPH,PrecipitationIn,Events,Conditions,WindDirDegrees,DateUTC
12:51 AM,37.9,19.9,48,30.11,10.0,NW,4.6,-,N/A,,Clear,320,2013-04-02 04:51:00
1:51 AM,36.0,19.9,52,30.11,10.0,NNW,3.5,-,N/A,,Clear,330,2013-04-02 05:51:00
2:51 AM,34.0,21.0,59,30.12,10.0,Calm,Calm,-,N/A,,Clear,0,2013-04-02 06:51:00
3:51 AM,33.1,23.0,66,30.13,10.0,NNW,5.8,-,N/A,,Clear,340,2013-04-02 07:51:00
4:51 AM,30.9,19.9,64,30.15,10.0,NNW,4.6,-,N/A,,Clear,340,2013-04-02 08:51:00
5:51 AM,30.9,19.0,61,30.18,10.0,NNW,3.5,-,N/A,,Clear,330,2013-04-02 09:51:00
6:51 AM,30.0,18.0,61,30.20,10.0,Calm,Calm,-,N/A,,Clear,0,2013-04-02 10:51:00
7:51 AM,30.9,18.0,59,30.24,10.0,Calm,Calm,-,N/A,,Clear,0,2013-04-02 11:51:00
8:51 AM,34.0,18.0,52,30.25,10.0,NE,3.5,-,N/A,,Clear,40,2013-04-02 12:51:00
9:51 AM,36.0,17.1,46,30.27,10.0,North,3.5,-,N/A,,Clear,350,2013-04-02 13:51:00
10:51 AM,37.9,16.0,41,30.27,10.0,North,3.5,-,N/A,,Clear,360,2013-04-02 14:51:00
11:51 AM,39.0,16.0,39,30.26,10.0,WNW,3.5,-,N/A,,Clear,290,2013-04-02 15:51:00
12:51 PM,43.0,16.0,34,30.25,10.0,WNW,10.4,17.3,N/A,,Clear,300,2013-04-02 16:51:00
1:51 PM,44.1,15.1,31,30.22,10.0,Variable,4.6,-,N/A,,Clear,0,2013-04-02 17:51:00
2:51 PM,46.0,14.0,28,30.20,10.0,WSW,9.2,17.3,N/A,,Clear,240,2013-04-02 18:51:00
3:51 PM,48.9,16.0,27,30.17,10.0,NW,10.4,-,N/A,,Clear,310,2013-04-02 19:51:00
4:51 PM,48.9,14.0,25,30.16,10.0,West,9.2,-,N/A,,Clear,270,2013-04-02 20:51:00
5:51 PM,48.9,10.9,22,30.17,10.0,Variable,6.9,25.3,N/A,,Clear,0,2013-04-02 21:51:00
6:51 PM,46.9,10.9,23,30.18,10.0,Variable,5.8,-,N/A,,Clear,0,2013-04-02 22:51:00
7:51 PM,45.0,12.9,27,30.18,10.0,Variable,4.6,-,N/A,,Clear,0,2013-04-02 23:51:00
8:51 PM,43.0,12.9,30,30.19,10.0,WNW,4.6,-,N/A,,Clear,300,2013-04-03 00:51:00
9:51 PM,41.0,12.9,32,30.22,10.0,West,3.5,-,N/A,,Clear,280,2013-04-03 01:51:00
10:51 PM,41.0,12.0,31,30.24,10.0,Calm,Calm,-,N/A,,Clear,0,2013-04-03 02:51:00
11:51 PM,39.0,12.9,34,30.25,10.0,NW,3.5,-,N/A,,Clear,320,2013-04-03 03:51:00